Printer-friendly version

IAU Minor Planet Center

Minor Planet Center

MPEC 2001-O15: 2000 OK67

The following Minor Planet Electronic Circular may be linked-to from your own Web pages, but must not otherwise be redistributed electronically.


Read MPEC 2001-O14 Read MPEC 2001-O16


M.P.E.C. 2001-O15                                Issued 2001 July 20, 22:24 UT

     The Minor Planet Electronic Circulars contain information on unusual
         minor planets and routine data on comets.  They are published
   on behalf of Commission 20 of the International Astronomical Union by the
          Minor Planet Center, Smithsonian Astrophysical Observatory,
                          Cambridge, MA 02138, U.S.A.

             Prepared using the Tamkin Foundation Computer Network

                              MPC@CFA.HARVARD.EDU
          URL http://cfa-www.harvard.edu/iau/mpc.html  ISSN 1523-6714

                                   2000 OK67

                           Revision to MPEC 2000-T41

Observations:
     K00O67K  C2001 06 26.51347 22 22 30.32 -13 02 16.8                      568
     K00O67K  C2001 06 26.54873 22 22 30.24 -13 02 17.3                      568
     K00O67K  C2001 06 26.56619 22 22 30.22 -13 02 17.2                      568
     K00O67K  C2001 06 27.52323 22 22 28.27 -13 02 30.9                      568

Observer details:
568 Mauna Kea.  Observers C. Veillet, A. Doressoundiram.  Measurer C. Veillet.
    3.6-m Canada-France-Hawaii Telescope + CCD.

First and last observations above in comparison with prediction:
Residuals in seconds of arc and reference
010626 568 24.1-  8.4-    010627 568 24.6-  8.4-    MPO  7530

Orbital elements:
2000 OK67
Epoch 2001 Apr. 1.0 TT = JDT 2452000.5                  Marsden
M 337.24208              (2000.0)            P               Q
n   0.00310665     Peri.  356.50466     +0.99984798     -0.01614646
a  46.5166070      Node     4.43655     +0.01733610     +0.88027276
e   0.1366697      Incl.    4.88003     +0.00186318     +0.47419316
P 317              H    6.0           G   0.15           U   6
Residuals in seconds of arc
000729 807  0.0   0.2+    000827 807  0.0   0.1+    001127 695  0.0   0.3-
000729 807  0.2-  0.1+    000827 807  0.0   0.1-    010626 568  0.1+  0.0
000801 807  0.2-  0.2+    000919 695  0.0   0.4-    010626 568  0.0   0.0
000801 807  0.1+  0.1+    000919 695  0.0   0.3-    010626 568  0.2+  0.3+
000826 807  0.2+  0.0     001126 695  0.4+  0.2+    010627 568  0.4-  0.1-
000826 807  0.0   0.1+    001127 695  0.1-  0.3-

Ephemeris:
2000 OK67                a,e,i = 46.52, 0.14, 5                  q = 40.159
Date    TT    R. A. (2000) Decl.     Delta      r     Elong.  Phase     V
2001 07 20    22 21.40   -13 09.4   39.959   40.794   144.9     0.8    22.2
2001 07 30    22 20.75   -13 13.2   39.874   40.793   154.6     0.6    22.2
2001 08 09    22 20.03   -13 17.3   39.814   40.791   164.2     0.4    22.1
2001 08 19    22 19.27   -13 21.6   39.783   40.789   173.7     0.2    22.1
2001 08 29    22 18.48   -13 25.8   39.781   40.787   175.1     0.1    22.1
2001 09 08    22 17.70   -13 29.9   39.809   40.786   165.8     0.3    22.1
2001 09 18    22 16.96   -13 33.6   39.864   40.784   155.9     0.6    22.2
2001 09 28    22 16.29   -13 36.8   39.948   40.782   146.0     0.8    22.2
2001 10 08    22 15.70   -13 39.4   40.055   40.781   136.1     1.0    22.2
2001 10 18    22 15.23   -13 41.3   40.184   40.779   126.1     1.1    22.2
2001 10 28    22 14.89   -13 42.4   40.331   40.777   116.1     1.3    22.3
2001 11 07    22 14.70   -13 42.6   40.491   40.776   106.0     1.3    22.3
2001 11 17    22 14.67   -13 41.9   40.659   40.774    96.0     1.4    22.3
2001 11 27    22 14.79   -13 40.3   40.831   40.772    85.9     1.4    22.3
2001 12 07    22 15.08   -13 37.8   41.000   40.771    75.9     1.3    22.3
2001 12 17    22 15.53   -13 34.4   41.162   40.769    65.8     1.3    22.3
2001 12 27    22 16.12   -13 30.3   41.312   40.767    55.8     1.1    22.3
2002 01 06    22 16.84   -13 25.6   41.445   40.766    45.8     1.0    22.3
2002 01 16    22 17.68   -13 20.3   41.557   40.764    35.9     0.8    22.3
2002 01 26    22 18.60   -13 14.5   41.645   40.762    26.0     0.6    22.3
2002 02 05    22 19.60   -13 08.5   41.707   40.761    16.2     0.4    22.2
2002 02 15    22 20.64   -13 02.3   41.740   40.759     6.6     0.2    22.2
2002 02 25    22 21.69   -12 56.1   41.744   40.757     4.4     0.1    22.2

Brian G. Marsden             (C) Copyright 2001 MPC           M.P.E.C. 2001-O15

Read MPEC 2001-O14 Read MPEC 2001-O16


Our Web policy. Index to the CBAT/MPC/ICQ pages.


Valid HTML 4.01!